FENGYUN 1C DEB, 31814

Orbit data source: Space-Track

FENGYUN 1C DEB, 31814 is space debris in SSO originally from a launch on Mon, 10 May 1999 UTC launched from the Taiyaun Space Center, China (TSC). Fengyun 1C debris stems from the Chinese weather satellite Fengyun-1C, which was intentionally destroyed by a Chinese anti-satellite missile in 2007. This event dramatically increased the amount of space debris, with thousands of trackable fragments posing hazards to satellites and human spaceflight. The Fengyun 1C debris cloud has become a focal point in discussions about space sustainability and the need for international regulations to prevent the creation of new debris.

Loading next visibility...
Identifier
31814, 1999-025CHC
Orbit
SSO
Country
Flag of CNCN / PRC
Related business
Manufacturer
Unknown
Mission
Spacecraft
Bus & Motor
Unknown
Mass
Unknown
Launch date (UTC)
1999-05-10 (27 years ago)
Launch vehicle
Unknown
Launch site
Taiyaun Space Center, China (TSC)
Object type
Payload
Rocket body
Debris
Shape & HBR
Unknown shape, 0.1 m
Radar Cross Section
Small (<0.1 m²)

Expand to show TLE details & history
Last TLE update: 3 days ago

TLE from 3 days ago
0 FENGYUN 1C DEB
1 31814U 99025CHC 26205.38423412  .00000163  00000-0  20815-3 0  9993
2 31814  99.5456 257.5785 0228491   1.6363 358.5480 13.66697901648549
Epoch: 2026-07-24T09:13Z
TLE epoch observation values (Epoch: 2026-07-24T09:13:17.827Z)
Latitude
-0.0001°
Longitude
177.1426°
Altitude
845.445 km
Speed
7.514 km/s
True Right ascension
17h 10m 18s
True Declination
0° 00' 00"
Sunlit
Object was in full shadow at epoch
Visualization orbit readout
Latitude
Unknown
Longitude
Unknown
Altitude
Unknown
Speed
Unknown
Apparent Right ascension
Unknown
Apparent Declination
Unknown
Sunlit
N/A
Visualization observer readout
Local Sidereal Time
22:27:52
Azimuth
Unknown
Elevation
Unknown
Doppler factor
Unknown
Orbital elements
Apogee altitude
1,177.502 km
Perigee altitude
839.936 km
Semi-major axis
7,386.856 km
Eccentricity
0.02285
Inclination
99.5456°
RAAN
257.5785°
Arg. of periapsis
1.6363°
True anomaly
358.47971°
Mean anomaly
358.548°
Eccentric anomaly
358.51405°
Mean motion
3.41864 °/min
Orbital period
105.3 mins
BSTAR
0.00020815
Loading maneuver chart data...
Computing Atmospheric mass density...

Documentation

Showing up to 5 results
|